JI1PZF-13 Weather Reports


Display with metric or nautical units.
time (UTC)temp
F
wind
direction
speed
MPH
gust
MPH
rain 1hr
in
rain 24hr
in
rain mn
in
humidity
%
barometer
mb
20260508153326 71 285 0.0 0.0 0.00 0.00 0.00 55 1005.4
20260508151830 71 279 0.0 0.0 0.00 0.00 0.00 55 1005.3
20260508144839 72 301 0.0 0.0 0.00 0.00 0.00 55 1004.8
20260508143325 72 280 0.0 0.0 0.00 0.00 0.00 61 1004.4
20260508141834 72 341 0.0 1.0 0.00 0.00 0.00 66 1004.3
20260508140341 72 31 0.0 5.0 0.00 0.00 0.00 64 1004.1
20260508134825 72 126 0.0 1.0 0.00 0.00 0.00 64 1003.8
20260508133338 73 228 0.0 2.0 0.00 0.00 0.00 64 1003.6
20260508131846 73 122 0.0 2.0 0.00 0.00 0.00 64 1003.5
20260508130330 73 163 0.0 1.0 0.00 0.00 0.00 63 1003.2
20260508124839 73 269 0.0 1.0 0.00 0.00 0.00 64 1003.1
20260508123327 73 270 0.0 3.0 0.00 0.00 0.00 64 1002.9
20260508121854 73 190 0.0 1.0 0.00 0.00 0.00 65 1002.7
20260508120406 73 217 0.0 6.0 0.00 0.00 0.00 67 1002.6
20260508114827 73 296 0.0 1.0 0.00 0.00 0.00 68 1002.5
20260508113356 73 244 0.0 1.0 0.00 0.00 0.00 69 1002.6
20260508111845 74 192 0.0 6.0 0.00 0.00 0.00 70 1002.4
20260508110334 74 94 0.0 1.0 0.00 0.00 0.00 71 1002.3
20260508104846 74 188 0.0 3.0 0.00 0.00 0.00 71 1002.1
20260508103329 74 227 0.0 3.0 0.00 0.00 0.00 71 1002.1
20260508101835 74 304 0.0 1.0 0.00 0.00 0.00 70 1002.2
20260508100346 74 146 0.0 2.0 0.00 0.00 0.00 69 1002.3
20260508094830 74 222 0.0 2.0 0.00 0.00 0.00 70 1002.5
20260508093340 74 88 0.0 17.0 0.00 0.00 0.00 69 1002.3
20260508091827 75 133 0.0 3.0 0.00 0.00 0.00 69 1002.6
20260508090335 75 227 0.0 2.0 0.00 0.00 0.00 69 1002.7
20260508084845 75 184 0.0 1.0 0.00 0.00 0.00 69 1002.4
20260508083322 75 53 0.0 6.0 0.00 0.00 0.00 70 1002.6
20260508081829 75 237 0.0 2.0 0.00 0.00 0.00 70 1002.7
20260508080338 75 209 0.0 1.0 0.00 0.00 0.00 71 1003.0
20260508074905 75 213 0.0 3.0 0.00 0.00 0.00 69 1003.1
20260508073327 76 98 0.0 2.0 0.00 0.00 0.00 68 1003.3
20260508071835 76 198 0.0 4.0 0.00 0.00 0.00 69 1003.3
20260508070341 77 111 0.0 2.0 0.00 0.00 0.00 70 1003.4
20260508064823 77 44 0.0 1.0 0.00 0.00 0.00 70 1003.5
20260508063330 77 205 0.0 1.0 0.00 0.00 0.00 71 1003.9
20260508061837 77 110 0.0 1.0 0.00 0.00 0.00 71 1003.9
20260508060327 77 96 0.0 0.0 0.00 0.00 0.00 72 1004.2
20260508054833 77 94 0.0 0.0 0.00 0.00 0.00 72 1003.9
20260508053337 77 50 0.0 1.0 0.00 0.00 0.00 72 1004.4
20260508051821 78 197 0.0 3.0 0.00 0.00 0.00 71 1005.0
20260508050326 77 119 0.0 1.0 0.00 0.00 0.00 72 1004.9
20260508044831 76 65 0.0 1.0 0.00 0.00 0.00 76 1005.3
20260508043337 76 72 0.0 1.0 0.00 0.00 0.00 76 1005.3
20260508041845 76 61 0.0 1.0 0.00 0.00 0.00 75 1005.8
20260508040327 77 107 0.0 2.0 0.00 0.00 0.00 74 1005.9
20260508034835 77 41 0.0 1.0 0.00 0.00 0.00 73 1006.1
20260508033339 76 103 0.0 0.0 0.00 0.00 0.00 73 1006.3
20260508031844 77 113 0.0 1.0 0.00 0.00 0.00 72 1006.6
20260508030327 77 263 0.0 2.0 0.00 0.00 0.00 69 1006.8
20260508024834 77 290 0.0 2.0 0.00 0.00 0.00 68 1007.1
20260508023322 77 154 0.0 1.0 0.00 0.00 0.00 69 1007.1
20260508021829 77 118 0.0 1.0 0.00 0.00 0.00 72 1007.3
20260508020341 77 168 0.0 1.0 0.00 0.00 0.00 70 1007.1
20260508014822 77 106 0.0 0.0 0.00 0.00 0.00 70 1007.3
20260508013333 77 98 0.0 0.0 0.00 0.00 0.00 69 1007.4
20260508011845 77 112 0.0 0.0 0.00 0.00 0.00 68 1007.4
20260508010324 77 219 0.0 0.0 0.00 0.00 0.00 67 1007.9
20260508004828 77 100 0.0 0.0 0.00 0.00 0.00 67 1008.1
20260508003333 78 117 0.0 1.0 0.00 0.00 0.00 67 1008.3
20260508001840 78 101 0.0 0.0 0.00 0.00 0.00 67 1008.3
20260508000401 77 78 0.0 0.0 0.00 0.00 0.00 69 1008.4
20260507234841 76 92 0.0 0.0 0.00 0.00 0.00 71 1008.7
20260507233329 76 90 0.0 0.0 0.00 0.00 0.00 71 1008.8
20260507231834 76 87 0.0 1.0 0.00 0.00 0.00 70 1008.9
20260507230340 76 54 0.0 0.0 0.00 0.00 0.00 70 1008.9
20260507224845 75 104 0.0 0.0 0.00 0.00 0.00 72 1009.1
20260507223407 74 103 0.0 0.0 0.00 0.00 0.00 74 1009.2
20260507221822 73 170 0.0 0.0 0.00 0.00 0.00 76 1009.4
20260507220346 72 216 0.0 0.0 0.00 0.00 0.00 78 1009.5
20260507214825 70 76 0.0 0.0 0.00 0.00 0.00 83 1009.7
20260507213334 69 77 0.0 0.0 0.00 0.00 0.00 84 1009.4
20260507211900 69 76 0.0 0.0 0.00 0.00 0.00 85 1009.4
20260507210341 69 59 0.0 0.0 0.00 0.00 0.00 85 1009.3
20260507204822 69 59 0.0 0.0 0.00 0.00 0.00 85 1009.3
20260507203327 68 115 0.0 0.0 0.00 0.00 0.00 85 1009.4
20260507201841 68 115 0.0 1.0 0.00 0.00 0.00 85 1009.5
20260507200345 68 121 0.0 0.0 0.00 0.00 0.00 85 1009.3
20260507194824 69 101 0.0 0.0 0.00 0.00 0.00 84 1009.0
20260507193354 69 119 0.0 0.0 0.00 0.00 0.00 82 1009.0
20260507191839 69 227 0.0 0.0 0.00 0.00 0.00 82 1008.9
20260507190347 69 234 0.0 0.0 0.00 0.00 0.00 82 1009.0
20260507184828 69 145 0.0 0.0 0.00 0.00 0.00 82 1009.1
20260507183337 69 122 0.0 0.0 0.00 0.00 0.00 82 1009.1
20260507181823 69 186 0.0 0.0 0.00 0.00 0.00 83 1009.0
20260507180330 69 122 0.0 0.0 0.00 0.00 0.00 84 1009.2
20260507174858 69 122 0.0 0.0 0.00 0.04 0.00 84 1009.1
20260507173343 69 122 0.0 0.0 0.00 0.04 0.00 84 1009.0
20260507171830 69 113 0.0 0.0 0.00 0.04 0.00 83 1009.1
20260507170334 69 111 0.0 0.0 0.00 0.04 0.00 82 1009.3
20260507164900 70 101 0.0 0.0 0.00 0.04 0.00 81 1009.6
20260507163323 70 211 0.0 0.0 0.00 0.04 0.00 80 1009.7
20260507161853 70 131 0.0 0.0 0.00 0.04 0.00 80 1009.8
20260507160324 70 166 0.0 0.0 0.00 0.04 0.00 80 1009.8
20260507154829 70 198 0.0 0.0 0.00 0.04 0.00 79 1010.0